GFSGL_prec_cthk_057.txt.gz
RH
47 54 66 67 60 48 49 50 52 48 45 42 41 42 45 45 41 37 38 36 37 42 51 59 58 59 59 58 58 63 63 62 63 67 67 67 66 66 65 65 65 63 63
44 53 61 59 52 51 53 53 55 52 52 47 44 41 38 38 38 37 39 37 40 47 48 44 42 42 43 45 48 53 55 58 58 60 61 61 61 60 61 61 60 61 62
41 48 55 58 54 55 60 59 61 57 57 52 48 43 40 39 38 38 38 38 37 41 42 40 40 39 41 43 45 49 51 51 55 56 56 58 57 58 59 60 61 62 62
40 46 50 53 55 60 68 67 66 65 67 62 53 47 43 40 43 38 36 38 39 39 39 38 38 37 38 40 42 45 46 50 52 52 53 54 54 60 59 65 63 63 60
39 43 48 52 55 61 71 75 77 76 70 68 64 54 48 43 44 45 39 37 37 37 38 37 37 38 36 36 37 39 42 45 46 48 50 53 52 56 60 60 61 57 56
43 44 51 57 61 71 74 81 88 88 85 74 69 60 53 47 42 46 45 41 38 38 39 39 39 38 38 38 37 38 39 40 42 44 47 51 53 54 56 56 55 55 53
51 50 56 61 68 78 84 85 89 90 94 92 82 67 55 53 50 48 48 49 44 46 44 41 40 39 38 38 38 37 36 39 43 44 47 50 53 54 54 54 52 49 46
53 50 52 61 68 75 86 89 96 96 92 96 97 86 65 57 50 49 48 48 47 50 50 49 46 44 42 42 41 40 39 41 43 44 45 46 45 44 45 46 47 46 44
52 54 54 60 64 64 65 70 77 85 96 94 99 96 82 65 55 54 51 50 51 51 51 50 49 48 47 48 47 45 44 45 44 44 41 39 37 40 39 40 39 39 41
51 55 60 62 61 53 53 57 64 81 93 95 94 97 92 82 66 60 58 53 51 52 52 55 56 56 55 53 50 48 46 43 40 37 35 33 30 29 29 30 32 36 41
50 54 56 59 62 59 56 60 59 69 88 96 95 96 97 91 82 74 63 59 60 59 58 57 57 56 54 55 53 49 44 40 37 36 33 32 32 32 32 30 26 25 28
55 56 56 55 56 61 59 65 65 66 74 84 91 94 96 98 93 88 77 66 65 65 61 58 59 55 53 51 50 49 46 41 39 38 35 35 39 39 36 32 30 29 29
58 59 54 56 57 62 62 66 69 68 68 72 75 89 91 95 96 94 91 87 78 71 73 72 68 62 57 51 49 48 47 45 42 42 40 41 44 42 38 37 36 35 35
58 56 55 56 56 61 65 68 68 70 69 72 71 77 88 92 92 92 91 93 92 90 86 83 80 73 64 57 53 50 47 45 44 41 40 42 44 42 41 40 39 38 37
53 51 51 55 57 58 62 61 62 66 70 70 72 69 65 74 83 93 94 94 91 90 91 79 73 68 66 62 56 52 50 47 42 39 39 40 42 42 42 44 45 42 40
47 45 45 47 50 55 56 59 58 57 55 58 70 71 69 69 63 72 85 90 92 89 90 80 74 72 69 67 62 57 56 49 42 41 41 42 43 45 46 47 47 44 41
46 47 45 50 54 56 58 56 54 48 44 42 52 67 71 71 69 70 73 82 87 83 83 76 74 69 67 68 64 61 58 53 49 46 42 44 48 50 50 50 51 49 46
53 44 40 49 51 51 50 49 42 39 38 37 42 47 56 66 69 73 76 76 80 76 77 79 79 73 68 68 67 64 62 58 56 53 48 50 54 54 54 56 57 56 53
53 53 56 53 53 45 43 42 39 35 36 38 39 42 45 50 55 63 74 79 78 84 84 85 82 78 78 70 68 67 63 62 59 58 60 59 60 62 65 64 61 60 56
53 51 47 47 45 44 40 38 38 39 39 38 40 43 43 44 48 56 60 65 74 77 82 89 82 92 85 76 68 75 68 70 63 61 68 67 67 74 74 68 65 64 59
34 31 38 50 57 55 48 43 39 37 41 42 44 43 45 47 49 50 53 57 58 59 61 66 68 74 90 77 80 80 67 72 67 68 82 80 80 81 80 76 70 65 62
36 34 39 45 53 58 59 58 54 44 42 45 49 49 47 45 50 56 60 57 53 54 61 67 72 76 79 79 67 69 74 73 74 79 81 81 85 86 82 78 77 74 69
38 37 38 39 42 47 56 60 65 63 58 54 51 52 54 55 55 62 65 62 59 60 59 61 60 65 67 75 77 84 86 88 87 89 87 88 89 89 86 86 85 79 75
39 39 41 41 41 42 45 51 61 70 67 66 69 71 67 65 69 72 72 67 61 62 68 69 72 81 84 86 89 88 88 90 92 93 91 93 92 90 88 91 91 87 82
36 36 36 40 42 48 49 51 50 59 70 69 75 80 83 80 77 74 73 76 78 72 74 74 77 83 85 84 86 88 89 91 90 92 92 92 93 91 89 90 87 82 85
43 44 44 44 48 55 57 56 60 62 66 67 70 75 80 85 86 89 87 92 87 85 84 83 83 88 88 89 89 90 92 90 90 92 93 95 95 95 96 94 94 97 84

GFSGL_prec_cthk_060.txt.gz
RH
49 48 57 65 58 48 44 47 48 52 49 45 41 44 52 52 49 44 44 46 39 38 44 55 68 75 70 66 63 62 64 66 65 66 68 69 67 64 64 64 65 64 61
46 46 54 59 56 54 53 53 55 55 54 53 47 44 41 41 42 42 43 43 40 40 46 50 55 59 62 60 56 58 61 62 62 61 63 64 65 64 64 62 63 59 59
42 45 51 56 53 51 60 64 63 61 62 61 56 52 44 42 39 39 41 42 41 39 45 50 51 48 46 45 46 50 54 56 56 57 60 60 60 59 58 59 62 62 60
40 44 49 54 56 56 57 66 71 74 72 67 65 58 51 45 42 40 38 39 40 40 42 46 44 42 44 45 46 48 51 52 53 55 56 57 57 59 61 60 57 60 60
41 47 49 55 60 60 64 71 72 77 82 79 72 68 59 52 46 44 42 40 38 39 40 40 40 38 40 42 44 45 47 48 50 50 50 51 54 54 59 59 64 61 57
43 46 48 52 56 61 73 84 86 86 85 88 88 78 63 57 55 47 45 44 41 37 40 39 38 38 39 40 41 42 42 43 43 43 45 50 52 52 51 54 56 61 54
43 43 45 48 52 55 64 75 83 87 88 85 90 92 77 61 59 57 51 48 46 43 40 41 40 40 39 40 40 40 39 38 40 44 46 47 48 53 54 54 54 53 53
46 47 46 51 55 59 58 59 67 66 76 86 94 94 93 75 60 59 58 55 52 50 47 46 44 43 42 42 41 39 39 39 40 43 46 49 49 51 52 54 54 51 48
45 45 47 48 51 49 51 48 51 56 67 85 96 98 99 92 72 61 56 55 54 52 50 50 51 49 49 47 46 44 44 45 46 45 45 46 47 46 43 43 44 44 44
46 46 48 49 48 45 42 43 47 50 56 79 90 94 96 97 85 69 60 58 56 57 53 51 51 50 49 50 49 49 49 48 47 46 44 39 35 35 36 38 38 38 39
47 49 47 48 48 45 47 48 51 51 55 65 75 94 96 98 97 84 72 66 65 60 56 55 56 57 58 57 55 55 54 50 48 43 39 33 30 29 28 28 27 28 33
48 46 45 45 45 47 51 54 58 60 56 61 68 75 95 92 94 96 88 76 71 71 68 61 59 59 58 56 55 54 53 49 46 43 41 35 33 33 35 33 29 27 29
51 48 46 46 45 46 51 59 64 65 63 59 63 69 74 90 91 97 96 94 88 84 80 75 70 69 68 66 61 56 54 52 48 45 44 40 38 40 40 38 35 34 33
56 52 45 47 51 55 56 62 64 64 66 68 66 70 72 71 79 88 92 94 93 92 89 89 88 84 81 79 75 69 65 58 54 51 48 45 42 42 44 41 39 37 39
58 50 45 49 54 56 56 57 58 60 62 64 66 68 70 75 71 78 82 85 91 93 94 89 89 90 88 79 74 69 67 61 56 55 51 43 41 42 44 43 42 43 42
49 46 43 45 49 50 49 51 54 57 57 57 55 57 62 68 78 75 76 77 78 90 92 85 87 92 87 86 82 83 80 68 60 59 53 45 43 44 45 45 47 47 46
46 44 44 49 52 52 47 48 48 50 53 51 46 41 42 49 63 75 78 80 76 83 76 85 87 88 92 83 72 72 73 64 62 59 56 54 49 48 48 48 51 51 51
53 54 56 57 57 53 47 46 46 44 41 42 38 40 40 41 44 54 64 70 71 78 76 78 85 90 84 82 85 84 85 72 69 62 57 57 55 55 52 53 54 54 55
59 61 64 64 62 56 54 51 42 38 35 39 39 40 43 42 39 47 53 60 64 72 74 75 84 87 88 87 93 92 85 82 80 73 62 62 62 60 54 56 60 60 60
58 57 56 56 55 55 57 49 41 40 38 38 41 43 45 41 42 44 45 50 58 66 74 85 78 84 99 97 89 96 98 89 76 73 73 72 71 75 62 63 72 76 71
51 49 46 43 40 41 43 50 55 55 50 47 47 47 48 46 45 46 50 53 53 53 61 62 77 72 80 80 90 95 92 85 93 89 79 76 73 73 75 71 78 85 82
45 41 34 34 34 36 41 47 57 56 60 59 56 51 49 47 50 50 48 49 58 65 62 58 57 60 62 68 74 77 86 95 91 84 82 80 79 80 89 87 88 86 85
31 35 36 36 37 39 40 42 45 49 53 63 67 61 59 60 59 60 60 62 63 72 71 67 65 68 69 68 69 75 78 80 80 90 87 93 92 89 91 90 91 91 90
32 30 31 34 36 40 44 49 52 54 55 56 59 64 65 69 67 72 74 72 76 80 81 78 74 75 73 78 81 83 88 92 96 98 98 96 94 91 89 89 92 94 90
35 33 35 35 36 38 42 49 53 56 60 64 65 62 62 67 67 70 72 77 78 81 89 90 84 84 86 85 87 90 92 90 92 93 95 97 95 95 95 94 94 95 93
43 45 49 49 48 49 53 57 62 64 67 69 71 72 72 75 78 80 82 83 84 86 90 92 92 94 95 93 92 93 94 94 94 94 95 95 97 98 96 97 97 97 98

GFSGL_prec_cthk_063.txt.gz
RH
41 41 47 51 54 54 52 51 51 53 51 48 44 43 51 54 55 54 52 54 52 47 46 49 56 67 80 84 73 69 67 69 69 71 70 71 72 69 67 68 67 66 64
41 38 45 48 49 51 53 57 58 55 54 53 50 48 43 42 43 47 46 46 46 49 40 43 52 64 76 76 70 69 64 67 67 66 68 69 70 70 68 67 66 66 63
41 39 45 47 51 50 50 56 61 66 66 61 59 57 48 43 42 39 40 43 44 44 41 44 48 52 59 61 60 61 58 62 63 62 65 67 66 65 62 62 62 61 58
40 38 44 48 51 51 52 57 63 69 70 72 75 63 59 51 45 42 39 39 41 43 42 40 45 48 51 50 49 49 51 55 57 59 60 62 61 61 60 60 61 61 59
36 37 43 46 51 51 52 59 70 72 79 81 83 82 70 63 54 48 42 41 42 42 43 41 40 43 47 46 46 47 48 50 52 53 57 57 56 56 57 60 59 58 61
36 39 43 45 49 49 53 56 58 67 76 76 82 85 85 79 62 56 52 43 43 46 42 41 41 41 41 40 41 42 45 48 49 52 52 51 54 56 54 56 62 64 63
38 42 46 44 46 51 54 57 59 61 57 61 72 84 87 90 78 59 58 55 46 46 45 43 42 42 41 39 40 41 41 42 43 45 44 47 52 54 54 54 57 60 60
43 45 46 45 46 50 51 52 52 52 52 58 77 84 90 95 91 70 58 59 58 52 50 48 46 44 42 41 40 40 41 41 40 42 44 47 50 51 54 56 57 59 59
51 51 50 47 48 49 48 47 48 48 50 54 64 81 94 96 93 88 67 60 59 58 58 54 51 49 48 47 47 45 45 44 44 44 44 47 49 51 53 56 58 57 55
55 57 51 49 48 46 45 44 47 48 51 51 57 64 89 98 99 95 78 69 61 57 59 58 54 53 52 52 50 48 46 46 46 46 48 49 49 48 49 47 48 48 52
55 60 55 51 49 48 45 45 47 51 51 54 55 58 71 93 99 99 92 74 68 64 62 62 59 54 53 53 53 53 51 51 50 50 48 45 41 38 36 36 37 41 44
56 59 61 56 53 52 50 49 49 50 50 52 55 56 59 73 86 95 98 98 85 72 73 74 70 66 63 59 58 56 55 54 53 50 48 43 39 33 30 31 31 30 30
63 66 60 59 58 56 54 53 51 51 51 51 51 54 59 63 71 79 91 94 95 89 80 80 78 75 71 66 64 65 66 62 56 53 52 50 47 44 39 37 36 32 31
81 72 64 63 61 59 60 60 58 54 50 53 57 58 58 60 64 68 85 89 93 93 96 91 92 88 86 82 79 79 78 76 74 72 68 63 59 52 49 44 38 36 37
87 79 69 65 65 64 59 56 54 49 47 51 55 58 61 62 62 67 73 80 80 83 91 91 90 90 90 89 87 87 85 79 79 71 69 69 67 64 59 51 46 42 41
85 81 69 60 58 56 52 52 50 49 42 45 47 49 51 51 53 53 58 66 81 85 89 85 85 85 86 90 92 94 92 86 84 81 78 77 70 62 58 57 53 46 47
70 66 62 56 53 51 50 51 54 49 43 41 41 43 43 43 43 41 41 50 62 70 81 95 88 88 90 92 94 94 90 94 87 72 71 72 68 60 64 60 55 50 50
72 67 62 60 58 58 56 55 55 49 43 42 37 39 40 41 41 39 38 40 47 55 63 67 71 74 94 82 84 99 89 90 89 87 88 82 75 68 67 66 66 63 57
73 69 68 67 65 63 64 61 52 49 45 43 40 42 40 41 39 38 40 41 42 48 53 57 64 64 85 97 82 91 92 98 98 97 94 90 84 76 69 69 70 67 69
79 76 72 66 62 59 57 53 53 48 48 49 47 47 48 44 46 45 40 39 40 43 44 49 58 61 68 77 82 98 96 94 94 97 98 93 90 84 77 75 76 80 73
76 70 62 55 45 44 45 47 44 50 52 53 54 54 49 47 48 50 52 50 45 46 52 57 54 55 54 52 59 66 75 79 88 98 99 97 91 83 80 82 86 79 74
52 47 43 42 45 47 46 39 40 43 47 48 52 55 54 50 50 51 52 52 54 55 54 58 59 60 64 68 68 69 68 67 70 75 81 89 92 89 92 90 89 85 82
38 38 40 44 44 43 42 43 44 45 47 49 49 50 52 53 53 53 55 58 60 60 64 68 71 72 73 76 78 78 80 79 77 78 77 84 95 98 93 92 92 94 94
41 41 42 41 40 40 43 43 44 47 47 49 56 55 53 54 57 61 63 63 66 67 68 69 75 79 79 77 78 84 89 87 90 93 94 93 92 98 98 99 96 97 97
47 47 45 44 43 43 44 43 46 50 53 57 58 63 65 67 68 68 69 71 73 75 79 80 93 89 90 92 92 91 92 93 93 95 96 96 96 97 98 99 98 99 98
47 46 47 48 48 49 51 54 55 55 55 57 61 59 61 65 66 58 63 67 69 71 74 79 80 87 93 94 96 96 96 97 98 98 99 99 97 97 97 97 99 98 97

GFSGL_prec_cthk_069.txt.gz
RH
36 41 43 50 57 50 50 48 51 58 60 59 59 58 56 51 51 57 59 69 68 69 68 63 62 64 69 72 73 91 96 88 81 68 69 69 69 67 67 66 62 61 61
42 42 43 49 55 57 52 50 55 59 62 66 68 71 67 61 53 49 49 55 55 59 60 57 59 58 61 71 68 85 95 90 80 68 66 70 67 65 66 66 65 65 60
46 43 41 46 51 51 53 51 53 58 64 71 72 73 77 78 74 60 50 48 47 52 49 50 53 52 49 53 68 86 96 92 81 69 66 69 64 66 66 65 64 63 59
46 46 42 45 47 50 51 51 52 54 56 58 65 73 72 71 79 85 64 51 47 48 46 46 46 47 48 49 49 67 87 87 77 66 63 67 64 64 68 64 62 58 56
50 49 44 43 47 47 48 49 52 52 54 58 62 55 62 69 76 85 82 70 58 53 48 46 45 42 39 42 50 57 63 72 65 61 60 62 61 67 59 67 62 60 55
50 50 47 47 46 48 50 52 50 52 54 52 52 53 64 73 75 78 79 83 73 62 56 51 44 39 39 42 44 53 57 62 62 59 56 54 57 59 68 61 61 57 58
48 48 45 48 51 50 50 49 52 51 47 46 50 53 61 69 70 82 84 82 87 73 64 59 50 47 43 43 43 44 48 53 55 55 52 54 57 57 61 57 61 59 57
55 51 46 46 50 52 49 48 50 48 45 44 47 52 53 52 67 81 88 88 87 84 69 63 63 55 49 50 47 47 47 45 47 47 49 51 51 49 53 54 58 62 56
59 54 49 48 51 51 49 49 46 45 45 48 48 49 49 48 51 62 80 88 90 88 80 63 62 66 56 48 54 57 51 50 48 48 49 48 50 48 50 54 63 65 56
63 57 54 53 51 52 56 55 48 38 39 48 51 49 50 47 47 54 68 83 89 93 81 76 61 59 60 58 55 58 57 59 55 50 49 51 52 51 53 54 56 56 57
71 59 59 57 53 55 62 56 47 46 41 48 54 52 52 52 51 53 61 71 86 95 90 81 77 70 67 66 67 69 68 65 62 57 56 54 52 53 54 54 60 66 68
69 67 66 60 58 64 57 54 55 52 48 46 55 56 54 53 53 55 60 64 71 86 93 91 81 72 71 69 66 63 66 68 70 68 63 63 62 59 56 54 52 56 63
65 69 65 65 73 77 67 68 62 56 55 55 57 62 60 58 58 58 60 61 66 71 82 95 92 85 80 76 75 73 72 71 69 70 69 66 63 64 66 69 70 68 60
86 61 82 83 76 72 68 63 71 67 63 58 64 67 65 64 60 63 66 66 63 64 69 74 82 82 89 85 84 83 83 81 81 82 81 81 79 77 75 70 70 69 64
67 67 76 85 70 62 65 74 77 72 67 66 64 61 60 59 59 55 54 56 63 71 68 69 71 78 87 88 88 87 86 87 88 88 88 88 87 87 87 87 90 85 82
69 75 79 75 69 68 73 77 84 73 63 54 51 52 55 54 51 44 41 43 49 55 70 85 81 83 75 82 89 90 88 91 91 90 90 90 95 92 92 92 94 91 83
75 80 82 75 75 78 76 79 81 74 60 55 54 54 54 54 50 44 39 37 37 37 41 43 45 56 60 94 83 77 76 78 79 79 81 82 87 89 95 86 86 87 89
82 84 85 84 77 76 79 77 80 80 75 70 70 66 57 54 46 45 43 45 50 52 50 46 46 48 50 51 51 56 60 68 68 69 72 73 72 87 93 96 97 89 92
83 89 89 86 88 90 88 85 85 84 79 80 76 71 68 59 51 52 52 50 51 54 55 52 52 50 50 50 50 53 57 61 66 70 71 75 78 83 88 81 76 85 92
95 92 89 87 91 80 77 85 86 86 83 83 77 79 77 72 74 70 62 53 53 58 59 59 59 60 57 55 54 51 50 51 52 54 57 60 65 69 73 72 76 75 81
92 95 91 89 86 94 96 94 91 87 87 88 74 85 84 76 83 81 75 61 59 64 59 59 68 58 69 75 77 75 73 67 63 63 64 66 70 72 75 77 83 85 87
80 84 87 86 77 83 77 77 74 74 74 72 69 74 68 78 76 73 63 59 59 62 60 58 60 60 61 62 62 61 63 66 70 74 78 80 84 81 83 86 86 88 91
49 57 60 55 56 60 55 54 58 62 60 62 64 69 72 70 65 61 61 60 58 60 59 56 55 56 59 60 60 61 62 64 67 70 75 79 86 89 90 91 93 95 94
48 48 51 52 52 55 58 55 55 58 66 71 71 70 62 58 61 62 63 59 55 56 56 52 49 52 54 54 54 55 57 59 62 65 66 71 75 72 76 82 90 96 97
51 51 49 50 52 56 57 56 56 59 60 59 57 59 63 58 53 52 50 51 48 46 47 47 44 43 46 44 42 39 36 36 36 38 43 45 46 47 49 54 56 60 72
55 56 55 58 59 60 60 58 56 56 55 52 50 47 49 50 48 44 42 42 39 42 42 39 37 39 40 36 28 27 27 28 29 31 34 39 40 40 40 42 42 42 45

GFSGL_prec_cthk_075.txt.gz
RH
29 31 35 36 34 35 34 34 37 41 44 45 47 49 61 68 67 63 55 51 58 70 69 72 75 76 78 83 82 78 80 84 89 96 96 85 73 69 66 66 67 64 61
29 32 31 34 34 34 35 35 35 36 37 39 43 45 48 53 56 64 66 65 55 51 55 60 64 65 68 75 76 74 76 83 85 89 95 91 76 69 67 66 65 63 63
32 34 36 37 37 34 38 38 38 36 37 38 43 47 47 43 52 61 62 64 73 63 52 49 52 55 62 63 64 64 73 83 91 93 97 95 82 71 64 63 65 65 63
36 35 35 36 36 41 41 44 45 41 39 41 43 47 44 47 50 61 64 65 65 73 68 55 47 49 50 49 51 58 60 83 96 94 96 95 85 78 67 63 61 60 61
47 45 41 38 39 40 44 46 47 47 45 47 46 44 46 44 45 53 61 64 65 69 71 71 59 51 46 41 43 48 52 62 71 80 85 89 85 81 76 65 63 61 63
47 49 51 47 43 42 44 49 51 50 50 52 44 44 45 44 45 45 54 58 66 72 76 76 75 65 51 42 44 47 50 55 58 62 62 70 77 75 79 74 66 62 58
51 60 60 58 51 44 42 49 55 55 54 57 53 47 47 47 47 46 46 50 56 66 73 80 84 78 70 58 45 48 50 51 52 53 58 63 66 72 75 74 70 63 61
58 60 56 59 61 57 45 46 50 53 52 61 57 51 51 48 45 47 47 48 54 61 67 72 82 83 80 74 63 51 49 51 51 50 52 52 53 56 61 62 68 63 61
76 54 61 56 60 63 56 49 48 53 54 68 61 58 56 51 44 46 47 51 51 60 65 68 73 74 80 81 71 62 62 54 50 51 52 52 52 53 54 55 57 55 54
46 59 55 81 61 66 69 58 56 55 60 68 61 62 58 55 49 46 46 50 51 52 54 67 70 75 75 72 69 67 68 69 69 65 58 53 53 54 54 55 55 54 55
44 57 80 89 90 97 90 73 67 61 72 77 62 64 59 57 55 49 49 50 53 51 51 57 60 74 75 73 73 70 68 64 67 70 70 66 62 59 58 56 54 53 56
49 48 57 61 78 75 88 89 84 78 84 77 66 63 67 62 62 55 56 56 55 53 51 51 55 66 77 71 70 73 71 72 71 73 74 75 74 71 66 64 65 64 62
41 41 46 48 49 54 81 85 94 90 86 79 77 69 72 74 75 66 59 61 59 59 55 49 53 62 67 81 74 75 74 72 72 73 75 77 76 78 79 78 77 76 77
35 40 39 32 32 40 81 97 98 92 89 89 77 76 77 82 82 72 63 63 60 57 58 52 50 56 63 64 63 67 73 72 75 75 75 77 80 81 79 80 81 81 80
37 38 34 35 34 34 49 60 73 87 82 85 85 87 86 86 78 68 58 60 58 53 54 50 48 50 61 66 68 68 73 76 78 80 81 82 78 79 82 80 84 86 85
50 51 50 50 51 63 67 67 71 77 86 82 79 78 77 74 71 67 59 54 51 51 54 50 45 42 54 63 63 77 72 76 78 78 81 80 77 80 77 76 72 79 81
64 60 59 59 61 66 73 82 88 87 87 85 80 70 60 58 60 62 60 59 56 54 56 53 46 42 41 42 44 47 48 56 55 83 70 76 87 82 69 84 85 85 90
65 75 71 76 72 77 81 90 86 79 84 76 69 71 70 65 68 67 65 67 65 59 62 63 56 50 48 48 49 50 53 53 51 53 54 56 58 60 63 61 68 79 88
72 64 61 67 75 95 89 98 97 90 89 85 78 87 84 81 80 78 79 77 74 70 68 63 59 54 54 58 58 57 55 55 53 54 54 56 58 59 58 59 59 59 60
74 73 82 85 87 89 91 93 96 97 99 97 95 95 92 91 90 91 90 91 85 75 74 71 62 56 58 56 57 60 66 60 57 58 57 55 56 58 57 58 60 61 64
89 92 91 88 89 90 90 89 95 94 94 97 97 98 98 94 96 96 89 88 83 76 73 72 62 55 53 58 56 52 52 52 52 51 50 50 50 49 50 52 55 55 58
57 69 75 81 80 81 85 83 88 90 92 91 95 95 94 95 94 82 77 76 75 75 61 54 53 52 52 50 49 45 43 46 44 42 41 41 41 42 44 46 47 45 44
41 45 50 47 58 65 69 69 70 78 88 89 86 88 84 74 74 75 74 72 67 63 58 55 50 44 41 40 37 37 37 35 31 28 26 26 27 27 28 30 31 32 32
42 48 49 52 51 50 51 56 55 60 65 63 67 65 65 69 70 72 71 75 63 54 46 40 39 35 31 29 27 22 21 19 18 19 20 24 26 29 29 30 31 32 32
40 42 47 52 57 60 57 60 65 72 69 66 69 74 75 81 82 79 57 48 41 36 32 31 26 27 26 23 20 19 19 20 21 22 23 25 27 31 32 33 33 36 35
47 52 55 59 59 62 63 64 65 66 63 64 63 62 62 53 48 40 33 28 27 27 26 27 26 26 26 26 25 25 25 24 24 26 26 27 29 31 31 32 34 35 34